Content
SEND FEEDBACK

Daily
Averages
Monthly
Summary
United States of America

SOLEDAD, CALIFORNIA


Home > North America > United States > California
Elevation: 200 feet     Latitude: 36 26N     Longitude: 121 19W

WEATHER
 
SELECT A DAY
Number of Records: 199,496;   Date Range: 1/1/95 - 8/28/14
 
SHARE

PRINT THIS DATA

[ ← Previous Day ]
WEATHER ALMANAC - JANUARY 31, 2013
[ Next Day → ]
[ °C ]   °F
Weather ElementAverageHighLow
Temperature52.6 °F71.1 °F (2:53 pm)42.1 °F (3:53 am)
Dewpoint41.4 °F45 °F (11:53 am)37.9 °F (3:53 am)
Humidity68.8 %86 % (1:53 am)31 % (2:53 pm)
Barometer30.24 in30.30 in (1:53 am)30.19 in (2:53 pm)
Wind Speed6.9 mph13.8 mph (7:53 am)
Weather ElementAverage
Visibility10 mi
Wind DirectionESE (99.5 °)

Weather ElementTotal
Precipitation---
Heating Degree Days8.4 (Base 65)
Growing Degree Days6.6 (Base 50)
Averaged from 22 records on January 31, 2013
WEATHER CONDITIONS BREAKOUT
WIND DIRECTION BREAKOUT
WEATHER BY HOUR - JANUARY 31, 2013
[ °C ]   °F
Local TimeTemperatureDewpointHumidityBarometerVisibilityWind DirectionWind SpeedGust SpeedPrecipitationEventsConditions
1:53 AM43.0 °F39.0 °F86 %30.30 in10.0 miESE (110°)8.1 mphClear
3:53 AM42.1 °F37.9 °F85 %30.28 in10.0 miESE (110°)11.5 mphClear
4:53 AM42.1 °F37.9 °F85 %30.27 in10.0 miEast (100°)10.4 mphClear
5:53 AM42.1 °F37.9 °F85 %30.27 in10.0 miEast (100°)12.7 mphClear
6:53 AM42.1 °F37.9 °F85 %30.28 in10.0 miEast (90°)11.5 mphClear
7:53 AM45.0 °F39.0 °F80 %30.28 in10.0 miESE (110°)13.8 mphClear
8:53 AM48.9 °F39.9 °F71 %30.29 in10.0 miEast (100°)13.8 mphClear
9:53 AM53.1 °F41.0 °F64 %30.29 in10.0 miEast (90°)10.4 mphClear
10:53 AM57.0 °F42.1 °F57 %30.29 in10.0 miEast (90°)10.4 mphClear
11:53 AM62.1 °F45.0 °F53 %30.26 in10.0 miENE (70°)8.1 mphClear
12:53 PM66.9 °F45.0 °F45 %30.23 in10.0 miNE (50°)5.8 mphClear
1:53 PM69.1 °F42.1 °F38 %30.21 in10.0 miVariable3.5 mphClear
2:53 PM71.1 °F39.0 °F31 %30.19 in10.0 miCalmClear
3:53 PM64.9 °F45.0 °F48 %30.19 in10.0 miWest (270°)11.5 mphClear
4:53 PM61.0 °F44.1 °F54 %30.19 in10.0 miWest (270°)11.5 mphClear
5:53 PM57.0 °F45.0 °F64 %30.20 in10.0 miWest (270°)5.8 mphClear
6:53 PM54.0 °F45.0 °F72 %30.21 in10.0 miCalmClear
7:53 PM48.9 °F44.1 °F83 %30.21 in10.0 miCalmClear
8:53 PM50.0 °F43.0 °F77 %30.21 in10.0 miNorth (360°)3.5 mphClear
9:53 PM46.9 °F42.1 °F83 %30.21 in10.0 miCalmClear
10:53 PM44.1 °F39.9 °F85 %30.21 in10.0 miCalmClear
11:53 PM45.0 °F39.9 °F82 %30.20 in10.0 miCalmClear
Hourly data recorded from KSNS, located miles away from Soledad, California







STORIES FROM OUR PARTNERS